Tracking 31027 objects as of 19-Jul-2025
HD Live streaming from Space Station
objects crossing your sky now

ONEWEB-0042

Track ONEWEB-0042 now!
10-day predictions
ONEWEB-0042 is classified as:


NORAD ID: 45441
Int'l Code: 2020-020T
Perigee: 1,223.5 km
Apogee: 1,226.2 km
Inclination: 87.9 °
Period: 109.8 minutes
Semi major axis: 7595 km
RCS: Unknown
Launch date: March 21, 2020
Source: United Kingdom (UK)
Launch site: TYURATAM MISSILE AND SPACE COMPLEX (TTMTR)
Your satellite tracking list
SL-12 R/B(2)
Track 1 satellite(s)




NASA's NSSDC Master Catalog

Two Line Element Set (TLE):
1 45441U 20020T   25199.40075065 -.00000337  00000-0 -98729-3 0  9998
2 45441  87.8829  87.5801 0001759  81.1297 279.0030 13.11417139258918
Source of the keplerian elements: AFSPC